Wind_Speed
39 37 37 37 39 42 41 40 38 33 30 27 27 29 29 30 30 29 29 31 30 31 33 35 36 35 34 36 36 37 36 33 32 31 29 29 27 25 22 20 21 22 22
37 36 37 37 38 41 43 40 35 32 30 29 31 35 36 36 35 32 31 31 33 33 34 35 36 36 37 37 38 38 38 35 34 33 32 31 31 27 25 22 20 22 23
36 36 38 39 41 43 43 41 34 29 29 33 37 40 40 37 34 31 32 33 34 35 36 36 35 35 36 38 38 39 38 39 37 36 35 34 32 29 28 24 23 24 25
35 37 39 38 40 41 41 39 32 29 32 36 40 41 39 35 33 32 32 30 29 31 35 36 36 36 36 37 38 39 39 39 38 36 38 37 34 31 30 27 26 26 26
35 37 37 37 40 41 38 37 34 32 35 39 41 38 36 33 31 29 27 26 27 28 31 33 36 38 37 37 38 38 40 40 39 38 39 39 36 35 31 29 28 28 27
35 37 35 38 42 41 36 35 35 36 38 38 36 35 33 33 33 33 31 28 26 24 27 30 34 36 39 38 39 40 39 40 40 40 40 41 39 36 34 33 30 30 29
41 39 38 39 39 38 35 36 35 38 38 34 34 34 33 34 34 36 37 37 34 31 28 27 32 33 35 36 37 39 41 40 41 41 41 41 41 39 37 35 34 32 31
47 41 39 36 35 34 33 35 35 38 33 34 34 35 36 38 39 39 38 39 40 36 34 32 31 33 35 35 37 37 38 40 40 42 42 39 40 40 39 38 37 33 33
45 42 37 32 33 33 33 35 36 35 33 32 34 36 39 40 39 38 35 32 32 32 31 31 32 33 33 33 34 33 35 37 39 40 41 41 40 40 39 39 38 39 36
45 40 32 31 31 32 34 37 39 36 33 33 35 37 40 36 37 35 33 30 30 30 30 29 30 31 33 32 31 30 32 35 37 37 40 40 40 41 40 39 40 40 40
35 35 33 33 30 34 37 36 40 36 34 35 35 35 38 36 37 33 30 29 29 29 29 29 31 31 31 33 33 31 38 34 35 36 38 40 41 43 43 41 39 39 40
38 32 37 36 33 36 37 38 41 37 36 37 38 38 39 37 35 34 31 30 31 30 31 30 30 31 32 33 34 34 33 34 33 35 37 38 41 43 44 42 40 40 40
34 39 35 38 37 37 38 39 40 37 37 36 38 37 38 35 33 32 30 31 32 32 34 31 31 30 30 32 35 35 35 34 34 34 36 37 39 43 44 44 42 42 41
37 36 38 37 38 38 40 43 41 36 34 37 33 35 35 35 33 31 32 33 32 35 31 30 30 30 28 29 32 33 36 36 36 36 36 34 39 41 43 44 43 43 42
37 33 39 35 37 38 43 41 36 32 34 36 35 33 33 34 31 32 32 34 32 29 30 29 29 29 31 29 31 32 32 38 38 38 40 36 38 41 44 44 44 44 45
36 33 33 36 36 38 40 39 31 32 35 33 35 33 32 32 32 32 35 30 28 30 29 28 29 29 30 30 29 30 31 34 37 39 41 38 41 39 45 44 45 45 45
33 30 31 36 34 37 39 31 31 34 32 33 34 33 31 32 31 33 35 31 29 30 28 20 22 26 28 32 31 31 31 33 35 38 40 42 42 39 40 44 43 42 43
31 31 31 33 34 35 31 31 30 33 29 35 33 33 31 32 32 36 35 31 30 30 29 27 26 24 24 27 28 29 30 32 34 37 39 39 42 42 38 42 44 44 42
32 31 32 32 33 32 27 30 29 30 31 35 35 34 33 33 33 35 34 32 32 33 32 32 31 31 28 26 26 27 28 29 29 33 36 36 37 39 40 42 44 43 42
33 33 31 30 35 34 30 33 27 31 33 36 35 34 34 36 36 34 34 35 35 35 33 28 28 28 30 29 28 25 26 27 27 29 31 34 35 37 38 39 42 44 44
32 32 31 31 32 29 35 28 30 33 37 36 36 33 35 36 36 36 37 36 35 33 32 31 30 28 29 31 33 32 30 29 27 27 30 33 34 36 37 38 40 42 44
30 29 27 29 29 28 29 29 33 36 38 37 37 33 35 39 38 38 37 35 34 31 27 27 25 25 26 27 30 29 29 29 30 28 29 31 32 33 35 37 40 41 43
26 26 24 28 26 28 27 32 35 39 38 36 37 36 36 38 35 34 34 32 26 23 21 20 21 21 22 25 29 28 26 26 27 28 28 28 28 30 31 34 35 38 40
22 23 27 27 26 27 28 33 37 36 36 36 36 35 38 31 32 29 26 20 20 20 19 17 18 19 21 21 20 20 21 23 23 23 25 25 26 25 23 25 30 33 34
21 24 28 30 29 28 31 34 33 33 33 33 33 32 27 28 25 18 15 13 14 14 11 9 7 7 9 15 16 14 14 16 16 17 19 19 20 21 22 24 26 28 28
24 26 25 27 29 30 31 30 30 31 29 29 25 26 23 22 14 11 8 6 8 8 8 9 7 2 6 9 10 11 13 15 19 19 19 18 19 20 21 21 22 23 24
Wind_Direction
306 308 312 313 313 312 310 315 319 320 316 312 311 310 306 304 300 294 287 286 275 269 266 265 262 258 251 249 249 249 251 247 241 238 236 239 241 245 248 246 249 245 239
301 304 309 313 313 309 308 311 315 317 314 312 309 310 308 305 300 293 288 279 270 264 264 262 262 261 257 250 248 249 249 249 245 240 237 236 239 239 245 248 246 244 240
297 302 305 308 309 310 311 310 315 311 310 311 314 313 310 306 300 290 285 281 274 265 258 260 262 260 258 256 250 247 247 247 246 241 239 236 234 237 242 245 248 243 240
309 308 307 308 304 308 311 310 315 312 311 313 315 313 307 302 300 301 294 285 280 272 264 259 259 260 258 254 253 250 247 246 246 243 239 236 232 233 238 241 244 245 239
312 312 307 307 305 305 310 310 314 316 315 314 313 308 303 298 297 298 299 295 287 274 267 264 262 260 258 258 256 251 249 248 247 244 240 236 234 228 234 238 239 245 244
311 312 312 312 309 308 311 310 314 315 314 313 309 305 302 298 296 290 293 295 290 287 272 265 261 259 258 256 256 256 252 251 249 247 240 237 237 228 234 236 239 240 244
312 312 310 310 305 307 310 309 312 314 314 314 308 305 303 299 293 288 285 288 291 288 282 276 268 262 258 258 257 254 254 251 248 247 244 240 237 233 234 233 239 244 243
316 314 307 305 302 304 308 308 310 314 313 311 309 307 304 302 299 294 288 284 285 283 279 275 271 267 259 256 256 255 252 250 247 244 244 242 234 237 232 234 236 240 244
316 313 308 299 299 304 307 305 312 311 309 307 307 308 305 305 301 295 291 287 282 281 276 269 264 259 261 253 252 252 248 245 244 241 241 240 236 238 234 236 238 241 242
317 313 308 298 300 304 306 307 312 308 308 307 312 310 311 307 302 299 295 292 289 283 279 276 271 263 255 257 250 246 245 243 242 240 239 238 236 238 238 238 239 242 245
318 312 307 304 305 304 303 308 310 305 306 310 313 310 309 310 303 301 299 297 292 288 284 280 276 272 264 257 254 246 246 243 241 241 240 235 236 237 239 239 239 242 245
316 314 311 304 305 302 307 310 306 302 306 309 310 307 305 308 304 306 303 299 294 290 289 283 278 275 270 263 257 252 245 247 245 243 242 237 240 239 238 239 241 240 242
307 306 310 307 302 306 309 308 304 304 304 309 308 307 307 306 300 304 300 296 291 292 290 282 279 275 268 262 259 253 251 248 247 245 244 243 241 240 239 240 241 242 241
303 301 302 307 303 304 302 305 302 303 305 306 309 311 310 306 302 303 302 299 291 291 286 281 279 271 268 263 258 255 249 246 246 243 241 243 244 243 240 240 240 242 241
297 293 297 304 306 300 303 303 303 302 303 307 310 310 311 307 305 303 300 299 296 290 285 279 278 270 265 265 255 252 249 245 243 243 242 244 246 245 240 238 239 241 239
295 291 298 303 302 299 299 301 299 298 302 310 311 311 308 305 303 299 303 299 293 286 283 277 272 269 264 262 255 250 248 244 243 240 244 244 244 245 239 237 238 238 239
291 290 298 299 301 298 297 300 297 295 303 311 312 309 310 305 298 298 304 300 295 292 288 279 276 272 269 261 255 251 252 247 244 243 243 244 243 240 238 234 234 234 238
287 287 294 297 295 295 298 295 290 295 310 313 311 309 308 304 299 299 300 299 296 292 288 283 276 272 271 258 255 255 255 248 243 239 240 242 238 240 236 232 232 234 235
280 283 290 294 292 299 292 286 290 301 311 311 310 308 308 304 300 299 297 299 295 291 288 283 272 266 264 257 253 256 252 249 243 239 238 237 235 236 234 232 231 231 231
275 280 291 298 289 290 285 289 297 304 311 311 306 310 306 303 303 300 299 299 295 292 289 282 273 267 261 256 251 252 255 247 244 242 238 235 235 233 233 233 233 232 229
271 280 291 286 282 286 281 294 301 302 307 308 306 307 303 305 303 300 302 297 295 291 285 279 273 265 259 255 253 250 247 243 239 240 241 238 234 233 233 234 234 233 232
267 280 280 285 289 279 288 299 300 302 305 305 306 303 300 302 300 298 299 297 294 291 285 280 271 263 257 256 250 246 240 239 241 243 239 239 235 233 232 232 233 232 232
266 271 276 280 285 293 299 299 298 300 302 305 305 303 303 301 300 302 299 298 299 295 290 283 275 263 251 242 237 231 235 237 238 240 239 236 230 229 229 230 230 231 230
268 270 275 287 290 288 287 290 293 298 301 303 302 303 301 304 307 302 302 303 305 301 296 285 272 260 247 242 241 240 241 239 235 237 231 226 228 226 224 223 223 224 224
272 271 272 279 281 278 284 286 292 295 299 301 301 301 306 309 307 306 311 323 328 330 318 299 273 258 230 222 225 219 219 218 219 216 214 218 223 220 212 212 215 217 217
267 267 271 268 273 276 284 289 288 293 299 301 303 307 309 310 317 320 331 319 333 345 8 20 25 61 184 172 179 199 188 185 186 191 197 205 209 210 211 203 199 200 202
Height
5879 5874 5871 5869 5867 5865 5863 5861 5861 5859 5858 5856 5855 5855 5855 5854 5854 5853 5852 5852 5850 5849 5849 5849 5849 5850 5851 5853 5853 5854 5856 5857 5859 5861 5863 5864 5866 5867 5868 5870 5871 5872 5873
5875 5872 5869 5865 5863 5861 5858 5858 5857 5855 5853 5851 5851 5850 5849 5848 5847 5846 5844 5843 5843 5842 5842 5842 5842 5843 5844 5845 5847 5848 5850 5850 5854 5856 5857 5859 5861 5863 5865 5866 5868 5870 5870
5872 5869 5866 5863 5859 5857 5854 5853 5853 5851 5850 5848 5846 5844 5842 5840 5839 5838 5838 5837 5836 5835 5836 5835 5835 5835 5837 5838 5840 5842 5844 5845 5848 5850 5852 5853 5856 5859 5861 5862 5864 5865 5867
5868 5866 5863 5859 5856 5853 5850 5849 5849 5848 5846 5844 5841 5839 5837 5835 5833 5831 5830 5830 5829 5829 5829 5829 5828 5828 5829 5832 5834 5836 5837 5840 5841 5844 5846 5849 5851 5855 5857 5858 5859 5861 5863
5865 5862 5860 5856 5851 5849 5846 5845 5844 5843 5842 5840 5837 5834 5832 5830 5827 5826 5824 5823 5822 5822 5822 5822 5822 5822 5823 5824 5826 5829 5830 5833 5835 5837 5840 5843 5846 5849 5852 5853 5854 5857 5858
5861 5858 5856 5851 5847 5844 5843 5842 5840 5838 5836 5834 5832 5830 5827 5825 5823 5821 5819 5818 5817 5816 5816 5816 5815 5815 5816 5818 5820 5821 5824 5826 5828 5830 5832 5837 5839 5844 5845 5848 5850 5852 5853
5856 5853 5851 5847 5843 5840 5839 5837 5836 5834 5831 5828 5827 5825 5823 5820 5817 5815 5813 5812 5810 5809 5809 5809 5809 5808 5809 5811 5813 5815 5816 5819 5821 5824 5827 5831 5833 5838 5840 5842 5844 5847 5849
5847 5848 5845 5842 5839 5837 5836 5834 5832 5830 5827 5825 5822 5819 5817 5814 5811 5808 5806 5805 5803 5802 5801 5801 5802 5801 5802 5804 5806 5807 5810 5812 5815 5817 5820 5824 5828 5831 5834 5837 5840 5842 5845
5844 5841 5838 5838 5835 5833 5832 5829 5828 5826 5823 5821 5817 5815 5812 5809 5804 5801 5799 5797 5795 5794 5794 5793 5794 5794 5794 5796 5798 5800 5801 5804 5807 5810 5813 5816 5821 5824 5828 5831 5834 5836 5839
5839 5834 5833 5832 5830 5829 5827 5825 5824 5821 5819 5816 5813 5809 5806 5802 5798 5794 5792 5790 5788 5787 5786 5785 5785 5786 5787 5788 5790 5792 5795 5796 5799 5802 5806 5810 5814 5817 5821 5824 5828 5831 5833
5839 5831 5828 5826 5826 5824 5822 5821 5818 5815 5813 5810 5806 5803 5800 5797 5792 5789 5787 5784 5782 5781 5780 5779 5778 5778 5778 5780 5782 5783 5788 5790 5792 5795 5798 5803 5807 5811 5815 5818 5821 5825 5828
5834 5830 5826 5824 5823 5821 5818 5816 5813 5810 5808 5804 5800 5797 5795 5791 5787 5782 5780 5778 5776 5775 5773 5772 5772 5771 5771 5772 5773 5775 5779 5781 5784 5787 5791 5796 5799 5804 5808 5811 5814 5819 5822
5834 5826 5824 5820 5818 5816 5813 5810 5808 5805 5802 5799 5795 5791 5789 5785 5782 5778 5776 5774 5770 5768 5765 5765 5764 5763 5764 5765 5765 5768 5770 5773 5776 5779 5782 5788 5792 5797 5801 5804 5808 5812 5816
5826 5822 5816 5815 5814 5812 5807 5805 5802 5800 5797 5793 5791 5787 5783 5779 5777 5774 5770 5766 5764 5760 5759 5758 5756 5756 5756 5757 5758 5760 5762 5765 5768 5772 5776 5781 5784 5789 5793 5797 5802 5806 5811
5821 5817 5811 5810 5809 5808 5803 5800 5798 5794 5792 5789 5784 5781 5778 5774 5771 5767 5765 5761 5756 5754 5752 5752 5750 5750 5751 5750 5751 5753 5755 5758 5761 5765 5768 5773 5776 5780 5784 5789 5794 5799 5804
5814 5809 5806 5804 5804 5803 5800 5795 5795 5790 5786 5783 5778 5775 5773 5769 5765 5762 5758 5755 5751 5747 5745 5744 5743 5743 5744 5744 5745 5746 5748 5751 5753 5759 5760 5766 5768 5772 5776 5781 5787 5792 5797
5809 5804 5802 5799 5798 5797 5794 5792 5789 5787 5782 5778 5774 5771 5767 5763 5760 5756 5751 5748 5745 5741 5738 5735 5735 5735 5736 5736 5737 5739 5740 5743 5746 5749 5753 5757 5761 5765 5769 5774 5780 5785 5790
5802 5799 5797 5795 5793 5791 5789 5787 5785 5781 5778 5772 5769 5765 5762 5759 5754 5749 5746 5742 5738 5735 5733 5731 5729 5728 5728 5729 5730 5732 5733 5735 5738 5742 5745 5749 5754 5758 5762 5768 5773 5778 5783
5795 5793 5791 5790 5786 5785 5784 5783 5779 5776 5773 5768 5764 5760 5755 5752 5748 5743 5739 5735 5732 5729 5726 5724 5722 5721 5722 5722 5724 5725 5726 5728 5731 5734 5738 5742 5746 5751 5756 5761 5766 5771 5777
5788 5786 5785 5783 5781 5781 5778 5776 5773 5770 5768 5762 5759 5755 5749 5745 5740 5736 5731 5728 5724 5721 5717 5715 5713 5713 5713 5714 5716 5718 5719 5722 5725 5728 5732 5736 5740 5744 5748 5754 5759 5764 5770
5780 5778 5778 5778 5776 5775 5773 5770 5768 5765 5762 5758 5753 5749 5743 5739 5733 5729 5724 5719 5716 5711 5708 5705 5704 5703 5704 5705 5707 5710 5712 5715 5718 5721 5724 5729 5733 5737 5742 5747 5752 5757 5763
5773 5772 5773 5772 5771 5770 5767 5765 5762 5759 5755 5752 5747 5743 5738 5732 5727 5721 5716 5711 5706 5702 5699 5696 5694 5694 5695 5696 5699 5702 5705 5710 5713 5715 5719 5722 5726 5731 5736 5741 5746 5752 5757
5766 5767 5767 5766 5766 5764 5762 5759 5757 5754 5749 5746 5740 5735 5730 5725 5719 5714 5708 5703 5699 5695 5691 5688 5686 5686 5688 5690 5691 5695 5699 5702 5706 5709 5713 5717 5721 5726 5730 5735 5740 5745 5751
5761 5761 5761 5760 5760 5759 5757 5755 5753 5748 5743 5739 5734 5728 5722 5718 5713 5707 5702 5698 5693 5688 5684 5682 5680 5679 5681 5683 5686 5690 5694 5697 5701 5705 5709 5713 5716 5720 5725 5729 5734 5738 5744
5756 5756 5756 5756 5755 5754 5752 5750 5746 5742 5739 5733 5728 5722 5718 5713 5707 5703 5699 5694 5690 5685 5682 5680 5678 5677 5676 5678 5682 5687 5690 5694 5698 5702 5706 5710 5714 5717 5720 5725 5730 5735 5741
5750 5751 5751 5751 5749 5748 5747 5744 5741 5737 5732 5728 5723 5718 5714 5708 5704 5700 5697 5694 5691 5687 5683 5680 5677 5675 5676 5678 5682 5685 5689 5693 5696 5701 5704 5708 5712 5714 5719 5723 5728 5734 5740